Location: Limerick
(52.6800°N, 8.6400°W)
Time: 15:10:05
(UTC+01:00)

Daily predictions for brighter satellites

Satellite Brightness Start Highest point End
(mag) Time Altitude Azimuth Time Altitude Azimuth Time Altitude Azimuth
USA 245 4.0 22:30:34 10° SSE 22:36:02 88° WSW 22:40:28 10° NNW
H-2A R/B 2.6 22:32:30 10° SE 22:37:16 45° ENE 22:42:11 10° N
Lacrosse 5 2.7 22:33:09 10° WNW 22:38:08 53° N 22:43:06 10° E
Cosmos 1953 Rocket 3.6 22:34:43 10° S 22:39:08 72° E 22:43:37 10° NNE
Cosmos 1346 Rocket 2.8 22:36:01 10° S 22:39:54 71° E 22:43:53 10° NNE
COSMOS 2455 3.0 22:34:10 10° SW 22:40:12 82° NW 22:46:17 10° NE
SL-8 R/B 4.4 22:37:45 10° W 22:42:16 40° SSW 22:46:46 10° SE
Cosmos 676 Rocket 4.3 22:37:13 10° S 22:42:21 49° ESE 22:47:28 10° NE
Cosmos 1842 3.9 22:40:27 10° SSE 22:44:06 38° E 22:47:45 10° NNE
SPOT 1/Viking Rocket 3.8 22:41:20 10° S 22:46:29 73° WSW 22:51:40 10° NNW
ATLAS CENTAUR R/B 4.4 22:44:56 10° WNW 22:49:05 25° NNW 22:53:10 10° NE
USA 238 DEB 4.4 22:43:39 10° S 22:49:51 34° ESE 22:56:04 10° NE
USA 238 4.4 22:43:46 10° S 22:49:58 34° ESE 22:56:09 10° NE
CZ-4C R/B 4.1 22:49:40 10° ESE 22:50:49 11° ESE 22:52:00 10° E
NOAA 11 4.3 22:46:29 10° SSE 22:51:55 87° WSW 22:57:23 10° NNW
Cosmos 1900 4.4 22:54:58 10° SSW 23:00:05 66° SE 23:05:11 10° NE
SL-08 RB Rocket 3.8 22:57:34 10° S 23:02:07 75° WSW 23:06:38 10° NNW
Cosmos 1766 4.0 23:00:07 10° NNW 23:04:02 53° W 23:07:57 10° S
YAOGAN 6 3.9 23:01:43 10° SSW 23:05:14 38° W 23:08:47 10° NNW
Cosmos 407 Rocket 3.6 23:03:34 10° SSW 23:08:50 86° WNW 23:14:04 10° NNE
Cosmos 1758 Rocket 3.9 23:08:19 10° SSW 23:12:40 69° WNW 23:17:01 10° N
Cosmos 1758 3.4 23:09:58 10° NNW 23:14:07 81° W 23:18:07 11° S
CARTOSAT-1 3.6 23:10:37 11° SSE 23:14:43 83° ENE 23:19:05 10° NNW
Cosmos 1544 3.5 23:11:32 10° N 23:15:14 51° ENE 23:18:19 14° SSE
SAR-Lupe-2 3.6 23:15:20 12° SSE 23:18:36 84° WSW 23:22:13 10° NNW
Cosmos 1340 4.1 23:16:12 13° SE 23:18:38 23° E 23:21:41 10° NE
Cosmos 1943 Rocket 3.1 23:16:41 10° NW 23:21:53 42° WSW 23:27:05 10° S
COSMOS 2406 3.5 23:17:03 10° S 23:22:32 49° ESE 23:28:04 10° NE
Cosmos 1818 3.8 23:21:57 10° NW 23:27:28 71° NE 23:32:37 12° SE
Cosmos 1656 Rocket 3.9 23:23:33 10° NW 23:29:14 69° WSW 23:34:07 14° SSE
Cosmos 1470 3.0 23:26:13 10° N 23:30:05 58° ENE 23:33:03 16° SSE
Cosmos 1954 Rocket 4.0 23:24:53 10° SSW 23:30:12 87° ESE 23:35:32 10° NNE
Cosmos 1805 3.6 23:26:53 10° NNW 23:30:48 62° W 23:34:23 12° S
SL-27 R/B 2.3 23:30:31 10° SSW 23:33:52 86° WNW 23:37:16 10° NNE
IGS 5A 3.6 23:30:26 14° S 23:34:04 76° WSW 23:38:15 10° NNW
Cosmos 1842 Rocket 3.7 23:33:23 10° NNW 23:37:47 74° W 23:41:34 14° S
SeaSat 1 4.4 23:34:52 10° SSW 23:38:26 20° WSW 23:42:02 10° WNW
Cosmos 1943 4.3 23:33:40 10° SW 23:39:09 48° NW 23:44:43 10° NNE
Lacrosse 4 Rocket 2.4 23:36:01 10° WSW 23:39:59 49° NW 23:44:03 10° NNE
ALOS 2 4.3 23:40:08 10° ESE 23:43:40 24° ENE 23:47:12 10° N
Cosmos 1092 Rocket 4.1 23:37:54 12° S 23:43:40 64° E 23:49:52 10° NNE
COSMOS 2487 3.1 23:42:43 18° S 23:45:03 40° ESE 23:48:28 10° NE
Geosat 4.1 23:45:02 10° NE 23:50:03 61° ESE 23:55:01 10° SSW
H-2A R/B 4.4 23:48:16 10° ENE 23:50:07 13° E 23:51:41 11° ESE
Nadezhda 4 Rocket 4.1 23:45:02 10° S 23:51:22 90° WSW 23:57:45 10° N
Cosmos 1741 Rocket 4.0 23:49:21 10° SSW 23:54:39 74° ESE 00:00:00 10° NNE
